EA1BFZ-13 Weather Reports


Display with metric or nautical units.
time (UTC)temp
F
wind
direction
speed
MPH
gust
MPH
rain 1hr
in
rain 24hr
in
rain mn
in
humidity
%
barometer
mb
20260508014112 42 0 0.0 0.0 0.00 0.00 0.00 1013.0
20260508013112 42 0 0.0 1.0 0.00 0.00 0.00 1013.0
20260508012112 41 0 0.0 1.0 0.00 0.00 0.00 1013.0
20260508011112 42 0 1.0 1.0 0.00 0.00 0.00 1013.0
20260508010112 42 0 1.0 1.0 0.00 0.00 0.00 1013.0
20260508005112 41 0 0.0 0.0 0.00 0.00 0.00 1013.0
20260508004112 42 0 0.0 0.0 0.00 0.00 0.00 1013.0
20260508003112 42 0 0.0 0.0 0.00 0.00 0.00 1013.0
20260508002113 42 0 0.0 0.0 0.00 0.00 0.00 1013.0
20260508001113 42 0 0.0 0.0 0.00 0.00 0.00 1014.0
20260507235112 42 0 0.0 0.0 0.00 0.00 0.00 1014.0
20260507234112 42 0 0.0 0.0 0.00 0.00 0.00 1013.0
20260507233112 43 0 0.0 1.0 0.00 0.00 0.00 1013.0
20260507232112 44 0 0.0 1.0 0.00 0.00 0.00 1014.0
20260507231112 44 0 0.0 0.0 0.00 0.00 0.00 1014.0
20260507224112 44 0 0.0 0.0 0.00 0.00 0.00 1014.0
20260507223112 44 0 0.0 0.0 0.00 0.00 0.00 1013.0
20260507222112 44 0 0.0 0.0 0.00 0.00 0.00 1013.0
20260507221112 44 0 0.0 0.0 0.00 0.00 0.00 1013.0
20260507220112 45 0 0.0 0.0 0.00 0.00 0.00 1013.0
20260507215112 45 0 0.0 0.0 0.00 0.00 0.00 1013.0
20260507214112 45 0 0.0 0.0 0.00 0.00 0.00 1013.0
20260507213112 45 0 0.0 0.0 0.00 0.00 0.00 1013.0
20260507212112 45 0 0.0 1.0 0.00 0.00 0.00 1013.0
20260507211112 46 0 0.0 0.0 0.00 0.00 0.00 1013.0
20260507210112 46 0 0.0 1.0 0.00 0.00 0.00 1013.0
20260507205112 46 0 0.0 0.0 0.00 0.00 0.00 1013.0
20260507204112 46 0 0.0 0.0 0.00 0.00 0.00 1013.0
20260507203112 47 0 0.0 1.0 0.00 0.00 0.00 1013.0
20260507202112 47 0 0.0 3.0 0.00 0.00 0.00 1012.0
20260507201112 47 0 1.0 4.0 0.00 0.00 0.00 1012.0
20260507200112 48 0 0.0 4.0 0.00 0.00 0.00 1012.0
20260507195112 48 0 1.0 2.0 0.00 0.00 0.00 1012.0
20260507194112 48 0 1.0 4.0 0.00 0.00 0.00 1012.0
20260507193112 49 0 1.0 2.0 0.00 0.00 0.00 1012.0
20260507192113 49 0 1.0 2.0 0.00 0.00 0.00 1012.0
20260507191112 50 0 1.0 0.0 0.00 0.00 0.00 1012.0
20260507190112 51 0 2.0 1.0 0.00 0.00 0.00 1011.0
20260507185112 51 0 0.0 0.0 0.00 0.00 0.00 1011.0
20260507184112 52 0 1.0 2.0 0.00 0.00 0.00 1011.0
20260507183113 52 0 0.0 3.0 0.00 0.00 0.00 1011.0
20260507182112 53 0 3.0 3.0 0.00 0.00 0.00 1011.0
20260507181112 54 0 0.0 2.0 0.00 0.00 0.00 1011.0
20260507180113 54 0 1.0 1.0 0.00 0.00 0.00 1011.0
20260507175113 54 0 1.0 2.0 0.00 0.00 0.00 1011.0
20260507174113 53 0 2.0 2.0 0.00 0.00 0.00 1011.0
20260507173113 53 0 0.0 2.0 0.00 0.00 0.00 1011.0
20260507172113 53 0 1.0 2.0 0.00 0.00 0.00 1011.0
20260507170113 55 0 0.0 1.0 0.00 0.00 0.00 1011.0
20260507165113 55 0 2.0 2.0 0.00 0.00 0.00 1011.0
20260507164113 55 0 0.0 0.0 0.00 0.00 0.00 1011.0
20260507163113 56 0 3.0 2.0 0.00 0.00 0.00 1011.0
20260507162113 56 0 1.0 0.0 0.00 0.00 0.00 1011.0
20260507161113 55 0 3.0 2.0 0.00 0.00 0.00 1011.0
20260507160113 55 0 1.0 1.0 0.00 0.00 0.00 1011.0
20260507155113 54 0 0.0 1.0 0.00 0.00 0.00 1011.0
20260507154113 54 0 0.0 1.0 0.00 0.00 0.00 1011.0
20260507153113 53 0 0.0 1.0 0.00 0.00 0.00 1012.0
20260507152113 53 0 1.0 2.0 0.00 0.00 0.00 1011.0
20260507151113 52 0 0.0 1.0 0.00 0.00 0.00 1011.0
20260507150113 51 0 0.0 0.0 0.00 0.00 0.00 1011.0
20260507145113 50 0 0.0 2.0 0.00 0.00 0.00 1011.0
20260507144113 50 0 0.0 2.0 0.00 0.00 0.00 1012.0
20260507143113 50 0 3.0 7.0 0.00 0.00 0.00 1012.0
20260507141113 53 0 0.0 3.0 0.00 0.00 0.00 1011.0
20260507140113 54 0 1.0 2.0 0.00 0.00 0.00 1011.0
20260507135113 55 0 0.0 2.0 0.00 0.00 0.00 1011.0
20260507134113 55 0 0.0 2.0 0.00 0.00 0.00 1011.0
20260507133113 56 0 1.0 4.0 0.00 0.00 0.00 1011.0
20260507132113 59 0 0.0 3.0 0.00 0.00 0.00 1011.0
20260507131113 61 0 0.0 3.0 0.00 0.00 0.00 1011.0
20260507130113 63 0 1.0 2.0 0.00 0.00 0.00 1011.0
20260507125113 63 0 0.0 5.0 0.00 0.00 0.00 1011.0
20260507124113 66 0 4.0 4.0 0.00 0.00 0.00 1011.0
20260507123113 72 0 2.0 5.0 0.00 0.00 0.00 1011.0
20260507122113 75 0 8.0 5.0 0.00 0.00 0.00 1011.0
20260507121113 74 0 2.0 4.0 0.00 0.00 0.00 1011.0
20260507115113 70 0 1.0 2.0 0.00 0.00 0.00 1012.0
20260507114113 66 0 3.0 5.0 0.00 0.00 0.00 1012.0
20260507113113 64 0 2.0 7.0 0.00 0.00 0.00 1012.0
20260507112113 64 0 1.0 1.0 0.00 0.00 0.00 1012.0
20260507111113 64 0 3.0 6.0 0.00 0.00 0.00 1012.0
20260507110113 66 0 4.0 8.0 0.00 0.00 0.00 1012.0
20260507105113 66 0 3.0 6.0 0.00 0.00 0.00 1012.0
20260507104113 65 0 3.0 5.0 0.00 0.00 0.00 1012.0
20260507103113 65 0 4.0 7.0 0.00 0.00 0.00 1012.0
20260507102113 62 0 2.0 6.0 0.00 0.00 0.00 1012.0
20260507101113 63 0 2.0 4.0 0.00 0.00 0.00 1012.0
20260507100113 62 0 1.0 6.0 0.00 0.00 0.00 1012.0
20260507095113 60 0 4.0 5.0 0.00 0.00 0.00 1013.0
20260507094113 59 0 1.0 5.0 0.00 0.00 0.00 1013.0
20260507093113 56 0 3.0 3.0 0.00 0.00 0.00 1012.0
20260507092113 50 0 0.0 1.0 0.00 0.00 0.00 1012.0
20260507091113 51 0 0.0 4.0 0.00 0.00 0.00 1013.0
20260507090113 53 0 4.0 5.0 0.00 0.00 0.00 1013.0
20260507085113 56 0 2.0 5.0 0.00 0.00 0.00 1012.0
20260507084113 61 0 0.0 2.0 0.00 0.00 0.00 1012.0
20260507083113 67 0 2.0 5.0 0.00 0.00 0.00 1012.0
20260507082113 65 0 0.0 3.0 0.00 0.00 0.00 1012.0
20260507081113 59 0 3.0 2.0 0.00 0.00 0.00 1012.0
20260507080113 55 0 4.0 3.0 0.00 0.00 0.00 1012.0
20260507075113 51 0 1.0 3.0 0.00 0.00 0.00 1013.0
20260507074113 51 0 2.0 2.0 0.00 0.00 0.00 1012.0
20260507073113 50 0 5.0 3.0 0.00 0.00 0.00 1012.0
20260507072113 49 0 1.0 2.0 0.00 0.00 0.00 1013.0
20260507071113 48 0 3.0 3.0 0.00 0.00 0.00 1013.0
20260507070113 47 0 2.0 1.0 0.00 0.00 0.00 1013.0
20260507065113 46 0 0.0 1.0 0.00 0.00 0.00 1013.0
20260507064113 45 0 2.0 2.0 0.00 0.00 0.00 1013.0
20260507063113 45 0 3.0 3.0 0.00 0.00 0.00 1013.0
20260507062113 45 0 1.0 2.0 0.00 0.00 0.00 1012.0
20260507061113 45 0 0.0 2.0 0.00 0.00 0.00 1013.0
20260507060113 44 0 0.0 0.0 0.00 0.00 0.00 1013.0
20260507055113 43 0 0.0 0.0 0.00 0.00 0.00 1013.0
20260507054113 43 0 0.0 1.0 0.00 0.00 0.00 1013.0
20260507053113 42 0 0.0 1.0 0.00 0.00 0.00 1013.0
20260507052113 41 0 0.0 2.0 0.00 0.00 0.00 1013.0
20260507051113 41 0 0.0 1.0 0.00 0.00 0.00 1013.0
20260507050113 41 0 0.0 1.0 0.00 0.00 0.00 1013.0
20260507045113 41 0 0.0 0.0 0.00 0.00 0.00 1013.0
20260507044113 40 0 0.0 0.0 0.00 0.00 0.00 1013.0
20260507043113 40 0 0.0 1.0 0.00 0.00 0.00 1013.0
20260507042113 40 0 0.0 1.0 0.00 0.00 0.00 1013.0
20260507041114 40 0 0.0 1.0 0.00 0.00 0.00 1013.0
20260507040113 40 0 0.0 0.0 0.00 0.00 0.00 1013.0
20260507035113 40 0 0.0 1.0 0.00 0.00 0.00 1013.0
20260507034113 39 0 0.0 0.0 0.00 0.00 0.00 1013.0
20260507033113 39 0 0.0 2.0 0.00 0.00 0.00 1013.0
20260507032113 39 0 2.0 1.0 0.00 0.00 0.00 1013.0
20260507031113 39 0 0.0 2.0 0.00 0.00 0.00 1013.0
20260507030113 40 0 0.0 1.0 0.00 0.00 0.00 1013.0
20260507025113 39 0 0.0 2.0 0.00 0.00 0.00 1013.0
20260507024113 40 0 0.0 1.0 0.00 0.00 0.00 1013.0
20260507023113 40 0 0.0 0.0 0.00 0.00 0.00 1013.0
20260507022113 40 0 0.0 0.0 0.00 0.00 0.00 1013.0
20260507020113 40 0 0.0 1.0 0.00 0.00 0.00 1013.0
20260507015113 41 0 0.0 2.0 0.00 0.00 0.00 1013.0